Location: ????????
(55.6333°N, 37.7000°E)
Time: 07:28:35
(UTC+00:00)

In-Cosmos 22 - Pass Details

Date: 19 May 2025
Orbit: 784 x 874 km, 81.2° (Epoch: 15 June)

Event Time Altitude Azimuth Distance (km) Brightness Sun altitude
Exits shadow 21:49:29 20° 175° (S) 1,888 5.4 -14.2°
Maximum altitude 21:53:26 65° 98° (E) 961 4.5 -14.2°
Drops below altitude 10° 21:59:10 10° 19° (NNE) 2,541 8.1 -14.1°
Sets 22:01:38 0° 16° (NNE) 3,482 9.3 -14.0°
